Location: Windsor
(43.2292°N, 89.3015°W)
Time: 09:01:16
(UTC+00:00)

CAS-4B - Visible Passes

Search period start: 04 July 2022 00:00
Search period end: 14 July 2022 00:00
Orbit: 524 x 536 km, 43.0° (Epoch: 03 July)

Date Brightness Start Highest point End Pass type
(mag) Time Alt. Az. Time Alt. Az. Time Alt. Az.
04 Jul ? 06:54:40 24° E 06:54:40 24° E 06:56:31 10° E visible
04 Jul ? 08:29:51 20° W 08:32:33 85° S 08:36:37 10° E visible
05 Jul ? 06:42:28 22° E 06:42:28 22° E 06:44:06 10° E visible
05 Jul ? 08:17:39 23° W 08:20:06 88° S 08:24:10 10° E visible
06 Jul ? 06:30:18 20° E 06:30:18 20° E 06:31:40 10° E visible
06 Jul ? 08:05:30 27° W 08:07:38 89° SSW 08:11:42 10° E visible
06 Jul ? 09:43:37 10° W 09:47:37 60° SSW 09:51:36 10° ESE visible
07 Jul ? 06:18:13 17° E 06:18:13 17° E 06:19:13 10° E visible
07 Jul ? 07:53:24 32° W 07:55:11 89° S 07:59:15 10° E visible
07 Jul ? 09:31:11 10° W 09:35:07 54° SSW 09:39:04 10° ESE visible
08 Jul ? 06:06:15 13° E 06:06:15 13° E 06:06:46 10° E visible
08 Jul ? 07:41:28 43° W 07:42:44 88° S 07:46:47 10° E visible
08 Jul ? 09:18:44 10° W 09:22:37 47° SSW 09:26:30 10° SE visible
09 Jul ? 07:29:49 69° W 07:30:16 85° S 07:34:19 10° E visible
09 Jul ? 09:06:18 10° W 09:10:06 41° SSW 09:13:55 10° SE visible
10 Jul ? 07:18:45 51° ESE 07:18:45 51° ESE 07:21:50 10° ESE visible
10 Jul ? 08:54:03 11° W 08:57:35 35° SSW 09:01:17 10° SE visible
11 Jul ? 03:41:48 10° SW 03:44:33 32° S 03:44:33 32° S visible
11 Jul ? 07:08:44 14° ESE 07:08:44 14° ESE 07:09:21 10° ESE visible
11 Jul ? 08:44:07 27° SW 08:45:03 30° SSW 08:48:36 10° SE visible
12 Jul ? 03:29:11 10° SW 03:33:00 43° SSE 03:34:42 27° ESE visible
12 Jul ? 05:08:49 10° W 05:10:00 19° W 05:10:00 19° W visible
12 Jul ? 08:35:23 12° SSE 08:35:23 12° SSE 08:35:52 10° SSE visible
13 Jul ? 03:16:35 10° SW 03:20:28 49° SSE 03:23:43 14° E visible
13 Jul ? 04:56:20 10° W 04:58:58 40° W 04:58:58 40° W visible
